This is the latest recevied weather packets stored in our database for station/object KC0QBU-13. If no packets are shown the sender has not sent any weather packets the latest 10 day(s).
| Time | Temp. | Humidity | Pressure | Rain* | Wind** | Luminosity | Snow |
|---|---|---|---|---|---|---|---|
| 1777920022 | 27.22° C | 40% | 1005 hPa | 0 mm | - | - | - |
| 1777919722 | 27.22° C | 40% | 1005.1 hPa | 0 mm | - | - | - |
| 1777919392 | 26.67° C | 41% | 1005.1 hPa | 0 mm | - | - | - |
| 1777919093 | 26.67° C | 43% | 1005.2 hPa | 0 mm | - | - | - |
| 1777918792 | 26.67° C | 42% | 1005.2 hPa | 0 mm | - | - | - |
| 1777918462 | 26.11° C | 42% | 1005.2 hPa | 0 mm | - | - | - |
| 1777918133 | 26.67° C | 41% | 1005.3 hPa | 0 mm | - | - | - |
| 1777917832 | 26.67° C | 41% | 1005.3 hPa | 0 mm | - | - | - |
| 1777917502 | 26.11° C | 46% | 1005.4 hPa | 0 mm | - | - | - |
| 1777917172 | 26.11° C | 44% | 1005.5 hPa | 0 mm | - | - | - |
| 1777916842 | 26.11° C | 40% | 1005.4 hPa | 0 mm | - | - | - |
| 1777916512 | 26.11° C | 44% | 1005.5 hPa | 0 mm | - | - | - |
| 1777916182 | 26.11° C | 42% | 1005.6 hPa | 0 mm | - | - | - |
| 1777915852 | 25.56° C | 44% | 1005.6 hPa | 0 mm | - | - | - |
| 1777915552 | 25.56° C | 46% | 1005.7 hPa | 0 mm | - | - | - |
| 1777915252 | 25.56° C | 45% | 1005.6 hPa | 0 mm | - | - | - |
| 1777914952 | 25.56° C | 43% | 1005.7 hPa | 0 mm | - | - | - |
| 1777914622 | 25° C | 42% | 1005.6 hPa | 0 mm | - | - | - |
| 1777914322 | 25.56° C | 41% | 1005.7 hPa | 0 mm | - | - | - |
| 1777914022 | 25° C | 45% | 1005.6 hPa | 0 mm | - | - | - |
| 1777913692 | 25° C | 42% | 1005.6 hPa | 0 mm | - | - | - |
| 1777913392 | 25° C | 43% | 1005.6 hPa | 0 mm | - | - | - |
| 1777913062 | 25° C | 42% | 1005.7 hPa | 0 mm | - | - | - |
| 1777912732 | 25° C | 46% | 1005.7 hPa | 0 mm | - | - | - |
| 1777912432 | 24.44° C | 45% | 1005.6 hPa | 0 mm | - | - | - |
* Rain latest hour (hover to see other rain measurements)
** Current wind speed in m/s (hover to see current wind gust speed)